Regional Weather Roundup
Issued by NWS

Home | Current Version | Previous Version | Text Only | Print | Product List | Glossary Off
Versions: 1 2 3 4 5 6 7 8 9 10 11 12 13 14 15 16 17 18 19 20 21 22 23 24 25 26 27 28 29 30 31 32 33 34 35 36 37 38 39 40 41 42 43 44 45 46 47 48 49 50

000
ASUS43 KMPX 191110
RWRMN
WEATHER ROUNDUP FOR MINNESOTA
NATIONAL WEATHER SERVICE TWIN CITIES/CHANHASSEN MN
600 AM CDT TUE SEP 19 2017


NOTE: "FAIR" INDICATES FEW OR NO CLOUDS BELOW 12,000 FEET WITH NO
SIGNIFICANT WEATHER AND/OR OBSTRUCTIONS TO VISIBILITY. N/A MEANS
CURRENT SKY AND/OR WEATHER CONDITIONS ARE NOT AVAILABLE.

MNZ060>063-068>070-191200-
   Twin Cities Metro

CITY           SKY/WX    TMP DP  RH WIND       PRES   REMARKS
TWIN CITIES    CLOUDY    60  58  92 SE7       29.92S
ST PAUL        CLOUDY    60  58  92 SE5       29.93S
CRYSTAL        CLOUDY    60  54  80 E5        29.90S
BLAINE         CLOUDY    61  59  94 SE7       29.92R
LAKEVILLE      MOCLDY    55  55 100 CALM      29.91F FOG
EDEN PRAIRIE   CLOUDY    60  57  89 E6        29.90S
SOUTH ST PAUL  CLOUDY    60  58  96 CALM      29.92S
LAKE ELMO      CLOUDY    59  55  88 CALM      29.94S
$$
MNZ001>005-007-008-013>017-022>024-027-028-191200-
   Northwest Minnesota

CITY           SKY/WX    TMP DP  RH WIND       PRES   REMARKS
BEMIDJI        FOG       54  54 100 SE8       29.87S VSB 1
HALLOCK        CLOUDY    57  57 100 SE10      29.80F FOG
ROSEAU         CLOUDY    57  52  82 SE8       29.85R
WARROAD        CLOUDY    55  52  88 SE7       29.87S FOG
THIEF RVR FALL CLOUDY    56  54  93 SE8       29.84F
CROOKSTON      CLOUDY    57  55  94 SE9       29.82F FOG
FOSSTON        CLOUDY    54  54 100 SE7       29.85R
DETROIT LAKES  CLOUDY    55  55 100 SE9       29.85S FOG
MOORHEAD       CLOUDY    61  57  88 SE9       29.80F FOG
PARK RAPIDS    FOG       55  54  96 SE7       29.87S VSB 1
MAHNOMEN       CLOUDY    56  55  95 SE7       29.84R
$$
MNZ006-009>011-018-025>026-191200-
   North Central Minnesota

CITY           SKY/WX    TMP DP  RH WIND       PRES   REMARKS
BAUDETTE       CLOUDY    54  54 100 SE10      29.88S
FLAG ISLAND    CLOUDY    55  54  94 SE13      29.86S
INTL FALLS     CLOUDY    53  51  93 SE6       29.91S
WASKISH        CLOUDY    54  54 100 SE8       29.88S
BIG FORK       CLOUDY    54  52  94 SE5       29.91R
LONGVILLE      CLOUDY    54  54 100 SE7       29.89S FOG
GRAND RAPIDS   CLOUDY    54  53  97 SE6       29.93F
CRANE LAKE     CLOUDY    54  52  94 CALM      29.95S
ORR            CLOUDY    52  50  93 SE3       29.90F FOG
COOK           CLOUDY    54  52  94 SE5       29.94S
WALKER         CLOUDY    55  54  95 SE5       29.88S
$$
MNZ012-019>021-037-191200-
   Northeast Minnesota

CITY           SKY/WX    TMP DP  RH WIND       PRES   REMARKS
DULUTH         FOG       55  55 100 SE12      29.95F VSB 3/4
ELY            CLOUDY    54  52  94 SE6       29.95S
HIBBING        CLOUDY    53  53 100 SE7       29.93F FOG
EVELETH        CLOUDY    55  54  95 SE5       29.95F
DULUTH HARBOR  CLOUDY    59  57  94 E10       29.95F
TWO HARBORS    CLOUDY    57  54  88 E3        29.95F
SILVER BAY     CLOUDY    57  55  94 E3        29.96S
GRAND MARAIS     N/A     58  56  93 NE3       30.00S
G MARAIS ARPRT CLOUDY    52  48  87 CALM      30.02S
$$
MNZ029>031-032-039>041-046>048-054>057-064-191200-
   West Central Minnesota

CITY           SKY/WX    TMP DP  RH WIND       PRES   REMARKS
FERGUS FALLS   CLOUDY    61  61 100 SE10G16   29.82F FOG
WHEATON        CLOUDY    63  61  94 SE13      29.81S FOG
MORRIS         CLOUDY    63  61  94 SE10      29.82R FOG
ALEXANDRIA     FOG       58  58 100 SE7       29.87S VSB 3/4
ELBOW LAKE     CLOUDY    60  60 100 SE8       29.83F FOG
WADENA         FOG       54  54 100 SE9       29.86F VSB 3/4
GLENWOOD       FOG       57  57 100 E7        29.87S VSB 1/4
APPLETON       CLOUDY    64  63  94 SE8       29.82S FOG
BENSON         CLOUDY    63  61  94 S10       29.85S FOG
ORTONVILLE     CLOUDY    63  61  94 NE12      29.81S FOG
MADISON        CLOUDY    66  66 100 SE10      29.82R FOG
WILLMAR        FOG       63  63 100 SE9       29.87S VSB 3/4
$$
MNZ033>034-036-042>043-049>051-058-059-191200-
   Central Minnesota

CITY           SKY/WX    TMP DP  RH WIND       PRES   REMARKS
ST CLOUD       CLOUDY    57  57 100 E6        29.90S FOG
PAYNESVILLE    FOG       59  59 100 SE7       29.88S VSB 1/2
AITKIN         CLOUDY    55  54  94 SE8       29.89F
PINE RIVER     CLOUDY    54  52  94 SE5       29.93R FOG
BRAINERD       CLOUDY    56  55  97 SE6       29.90S FOG
STAPLES        CLOUDY    55  55 100 SE6       29.88S FOG
LONG PRAIRIE   LGT RAIN  55  55 100 E5        29.88S VSB 1/2
LITTLE FALLS   CLOUDY    55  54  94 SE3       29.89S FOG
LITCHFIELD     FOG       61  61 100 SE7       29.88F VSB 1/2
BUFFALO        CLOUDY    59  56  91 E7        29.91S
MAPLE LAKE     CLOUDY    60  59  97 SE6       29.90S
HUTCHINSON     FOG       61  61 100 E6        29.89F VSB 1/4
$$
MNZ037-044-045-052-053-191200-
   East Central Minnesota

CITY           SKY/WX    TMP DP  RH WIND       PRES   REMARKS
PRINCETON      CLOUDY    59  57  94 E5        29.91S
MORA           CLOUDY    55  54  94 CALM      29.94S
RUSH CITY      CLOUDY    57  55  91 CALM      29.93S
MOOSE LAKE     CLOUDY    55  54  94 E3        29.92S
HINCKLEY       CLOUDY    57  55  94 E5        29.94R
CLOQUET        CLOUDY    55  54  94 E5        29.94S FOG
MCGREGOR       CLOUDY    55  54  94 SE8       29.92F
$$
MNZ071>073-080-081-089-090-097-098-191200-
   Southwest Minnesota

CITY           SKY/WX    TMP DP  RH WIND       PRES   REMARKS
MONTEVIDEO     CLOUDY    63  63 100 S8        29.83S FOG
GRANITE FALLS  CLOUDY    65  65  97 SE6       29.86S FOG
CANBY          CLOUDY    64  64  97 E8        29.82S FOG
MARSHALL       CLOUDY    65  64  97 SE7       29.83F FOG
REDWOOD FALLS  CLOUDY    64  62  93 SE10      29.85S FOG
OLIVIA         FOG       61  61 100 SE9       29.86R VSB 3/4
PIPESTONE      FOG       64  64 100 S10       29.82F VSB 1/2
WINDOM         CLOUDY    64  63  94 SE9       29.86S FOG
WORTHINGTON    CLOUDY    64  64 100 SE7       29.86S
JACKSON        CLOUDY    63  63 100 SE8       29.88S FOG
TRACY          CLOUDY    66  66  99 S6        29.85S FOG
SLAYTON        CLOUDY    64  63  95 SE7       29.85S FOG
$$
MNZ065>067-074>077-082>085-091>093-191200-
   South Central Minnesota

CITY           SKY/WX    TMP DP  RH WIND       PRES   REMARKS
MANKATO        CLOUDY    62  62 100 SE8       29.90S FOG
NEW ULM        FOG       63  61  94 SE5       29.88R VSB 1/2
ST JAMES       CLOUDY    63  63 100 SE6       29.89R FOG
FAIRMONT       CLOUDY    65  64  97 SE9       29.89R FOG
GLENCOE        CLOUDY    61  61 100 E7        29.89S FOG
FARIBAULT      CLOUDY    61  59  94 E3        29.91F
OWATONNA       CLOUDY    61  59  94 SE6       29.91S
WASECA         MOCLDY    59  57  94 SE3       29.92S FOG
ALBERT LEA     CLOUDY    64  64 100 SE5       29.91S FOG
$$
MNZ078>079-086>088-094>096-191200-
   Southeast Minnesota

CITY           SKY/WX    TMP DP  RH WIND       PRES   REMARKS
ROCHESTER      MOCLDY    57  56  96 SE7       29.94S
RED WING       CLOUDY    59  55  88 E3        29.93R
STANTON        CLOUDY    59  56  89 CALM      29.91S
DODGE CENTER   CLOUDY    57  55  94 SE3       29.93S
WINONA         CLOUDY    59  57  94 SE5       29.95S
AUSTIN         CLOUDY    57  55  94 SE5       29.93S
PRESTON        CLOUDY    56  54  92 SE3       29.95S
$$
ABBREVIATIONS USED IN REMARKS
   TC - TEMPERATURES IN CELSIUS
  WCI - WIND CHILL INDEX
   HX - HEAT INDEX
  VSB - VISIBILITY
$$



USA.gov is the U.S. government's official web portal to all federal, state and local government web resources and services.